Location: Most
(50.5133°N, 13.6207°E)
Time: 11:04:53
(UTC+01:00)

Oscar 11 - Pass Details

Date: 28 November 2022
Orbit: 611 x 621 km, 97.6° (Epoch: 28 January)

Event Time Altitude Azimuth Distance (km) Brightness Sun altitude
Rises 16:54:30 0° 204° (SSW) 2,885 11.3 -7.5°
Reaches altitude 10° 16:57:11 10° 222° (SW) 1,983 10.9 -7.9°
Maximum altitude 17:00:21 20° 269° (W) 1,455 10.0 -8.3°
Drops below altitude 10° 17:03:31 10° 317° (NW) 1,990 9.9 -8.8°
Sets 17:06:15 0° 334° (NNW) 2,899 10.5 -9.2°
